Location: B
(0.0000°N, 0.0000°E)
Time: 08:55:12
(UTC+02:00)

Amateur Radio Satellites - All Passes

Search period start: 02 September 2014 08:25
Search period end: 03 September 2014 08:25
Location: B, 0.0000°N, 0.0000°E

Satellite Date Start Highest point End Downlink Frequencies (MHz)
Time Altitude Azimuth
STRAND 1 02 Sep 08:30:18 08:35:27 87° 257° (WSW) 08:40:32 ?
SO-67 02 Sep 08:33:16 08:36:35 46° 101° (E) 08:39:54 435.3500 MHz FM
RS-15 02 Sep 08:58:27 09:07:38 29° 291° (WNW) 09:16:36 29.354 - 29.394 USB, Beacon 29.352 USB
JAS-2 02 Sep 09:08:20 09:10:33 12° 280° (W) 09:12:51 435.800 - 435.900 CW/SSB, 435.910 FM
PANSAT 02 Sep 09:25:51 09:27:55 14° 332° (NNW) 09:29:59 not established
KITSAT 1 02 Sep 09:52:42 09:58:29 22° 69° (ENE) 10:04:15 435.175 FM
Saudisat 1A 02 Sep 10:10:54 10:15:08 49° 248° (WSW) 10:19:23 436.775 MHz
HO-68 02 Sep 10:46:18 10:53:28 90° 104° (ESE) 11:00:41 435.675 MHz FM
UKube-1 02 Sep 11:15:34 11:19:52 71° 282° (WNW) 11:24:13 145.840 MHz, 145.915 MHz
Oscar 11 02 Sep 11:19:06 11:23:25 72° 102° (ESE) 11:27:44 145.825 FM, Beacon 2401.500 USB
KITSAT 1 02 Sep 11:45:57 11:53:33 47° 250° (WSW) 12:01:12 435.175 FM
FUNcube-1 02 Sep 11:51:34 11:56:07 62° 102° (ESE) 12:00:41 145.950 - 145.970 MHz USB
MaSat-1 02 Sep 12:24:56 12:28:42 36° 105° (ESE) 12:32:56 437.345 MHz
AO-40 02 Sep 12:39:33 13:03:45 56° 355° (N) 13:09:35 Beacon 2401.320
JAS-1B 02 Sep 14:26:59 14:32:45 17° 75° (ENE) 14:38:24 435.800 - 435.900 CW/SSB
Oscar 19 02 Sep 14:43:16 14:47:55 35° 77° (ENE) 14:52:33 437.125 CW, 437.150 USB
AO-Echo 02 Sep 14:51:06 14:54:24 17° 78° (ENE) 14:57:38 ?
SO-50 02 Sep 14:52:47 14:57:38 85° 68° (ENE) 15:02:30 436.795 FM
Oscar 16 02 Sep 15:18:06 15:23:15 81° 258° (WSW) 15:28:23 437.025 USB, Beacon 2401.1428
ITAMSAT 1 02 Sep 15:21:40 15:26:23 35° 77° (ENE) 15:31:02 435.822 SSB
Uribyol 2 02 Sep 15:30:39 15:35:38 50° 77° (ENE) 15:40:35 436.500 FM
TMSAT-1 02 Sep 15:46:18 15:49:33 17° 77° (ENE) 15:52:47 436.925 FM
AO-27 02 Sep 15:50:54 15:56:07 85° 77° (ENE) 16:01:17 436.795 MHz FM
Sapphire 02 Sep 15:53:17 15:58:11 36° 109° (ESE) 16:03:04 437.095 MHz 1200 baud AX-25 AFSK
JAS-1B 02 Sep 16:12:55 16:22:41 76° 256° (WSW) 16:32:24 435.800 - 435.900 CW/SSB
PCSat 02 Sep 16:21:55 16:27:19 87° 109° (ESE) 16:32:42 145.825 MHz
Oscar 19 02 Sep 16:24:27 16:26:58 14° 257° (WSW) 16:29:31 437.125 CW, 437.150 USB
AO-Echo 02 Sep 16:28:27 16:32:55 29° 257° (WSW) 16:37:16 ?
Gurwin Techsat 1B 02 Sep 16:34:10 16:39:30 83° 258° (WSW) 16:44:48 435.225 FM
UOSAT-12 02 Sep 16:37:44 16:42:19 74° 68° (ENE) 16:46:49 437.025 FM, 437.400 FM
AO-7 02 Sep 16:38:24 16:43:15 17° 73° (ENE) 16:48:04 29.400 - 29.500 MHz
ITAMSAT 1 02 Sep 17:03:00 17:05:34 14° 257° (WSW) 17:08:09 435.822 SSB
Uosat F 02 Sep 17:21:32 17:25:48 28° 77° (ENE) 17:30:01 435.120 FM
TMSAT-1 02 Sep 17:24:34 17:29:12 31° 257° (WSW) 17:33:48 436.925 FM
OPAL 02 Sep 17:36:24 17:40:58 32° 104° (ESE) 17:45:29 ?
Sapphire 02 Sep 17:38:27 17:41:20 15° 290° (WNW) 17:44:14 437.095 MHz 1200 baud AX-25 AFSK
PANSAT 02 Sep 17:52:54 17:55:00 14° 28° (NNE) 17:57:06 not established
RS-15 02 Sep 18:26:07 18:36:38 41° 70° (ENE) 18:47:31 29.354 - 29.394 USB, Beacon 29.352 USB
AO-7 02 Sep 18:27:24 18:35:37 62° 254° (WSW) 18:43:49 29.400 - 29.500 MHz
JAS-2 02 Sep 18:54:23 19:00:19 31° 79° (E) 19:05:39 435.800 - 435.900 CW/SSB, 435.910 FM
Uosat F 02 Sep 19:01:10 19:04:18 17° 257° (WSW) 19:07:25 435.120 FM
OPAL 02 Sep 19:16:35 19:19:33 16° 285° (WNW) 19:22:31 ?
ISS 02 Sep 19:25:27 19:27:44 17° 54° (NE) 19:30:01 145.800 FM
STRAND 1 02 Sep 19:26:35 19:29:11 14° 103° (ESE) 19:31:48 ?
PANSAT 02 Sep 19:31:20 19:35:11 87° 209° (SSW) 19:39:02 not established
Hamsat 02 Sep 19:49:37 19:53:48 56° 259° (WSW) 19:58:00 145.90 MHz
SO-67 02 Sep 20:18:26 20:21:20 25° 79° (E) 20:24:13 435.3500 MHz FM
RS-15 02 Sep 20:38:23 20:48:37 37° 248° (WSW) 20:59:20 29.354 - 29.394 USB, Beacon 29.352 USB
JAS-2 02 Sep 20:39:26 20:45:01 26° 254° (WSW) 20:50:08 435.800 - 435.900 CW/SSB, 435.910 FM
Saudisat 1A 02 Sep 20:40:42 20:41:58 11° 113° (ESE) 20:43:13 436.775 MHz
ISS 02 Sep 21:02:20 21:04:16 15° 234° (SW) 21:06:12 145.800 FM
STRAND 1 02 Sep 21:03:30 21:08:05 34° 283° (WNW) 21:12:42 ?
PANSAT 02 Sep 21:13:28 21:15:23 13° 208° (SSW) 21:17:17 not established
KITSAT 1 02 Sep 21:59:52 22:06:34 29° 110° (ESE) 22:13:14 435.175 FM
AO-40 02 Sep 22:12:45 05:22:44 90° 191° (SSW) 07:59:43 Beacon 2401.320
Saudisat 1A 02 Sep 22:17:24 22:21:18 31° 292° (WNW) 22:25:11 436.775 MHz
HO-68 02 Sep 22:38:00 22:45:10 77° 76° (ENE) 22:52:16 435.675 MHz FM
UKube-1 02 Sep 23:25:33 23:29:46 50° 258° (WSW) 23:33:58 145.840 MHz, 145.915 MHz
Oscar 11 02 Sep 23:28:19 23:32:39 83° 258° (WSW) 23:36:58 145.825 FM, Beacon 2401.500 USB
KITSAT 1 02 Sep 23:54:25 00:01:38 36° 290° (WNW) 00:08:51 435.175 FM
FUNcube-1 03 Sep 00:02:44 00:06:53 88° 78° (ENE) 00:11:03 145.950 - 145.970 MHz USB
MaSat-1 03 Sep 00:18:06 00:20:58 25° 70° (ENE) 00:23:31 437.345 MHz
Oscar 10/S400 03 Sep 00:39:30 20:33:25 43° 350° (N) 06:33:55 145.825 - 145.975 CW/USB, Beacon 145.810 USB
Oscar 16 03 Sep 02:15:00 02:18:04 16° 103° (ESE) 02:21:09 437.025 USB, Beacon 2401.1428
AO-27 03 Sep 02:49:28 02:52:03 14° 103° (ESE) 02:54:39 436.795 MHz FM
SO-50 03 Sep 03:06:44 03:10:58 48° 292° (WNW) 03:15:14 436.795 FM
Oscar 19 03 Sep 03:16:33 03:21:43 88° 283° (WNW) 03:26:53 437.125 CW, 437.150 USB
PCSat 03 Sep 03:16:53 03:20:28 18° 70° (ENE) 03:24:03 145.825 MHz
AO-Echo 03 Sep 03:18:48 03:23:11 36° 103° (ESE) 03:27:42 ?
Gurwin Techsat 1B 03 Sep 03:34:45 03:38:18 18° 103° (ESE) 03:41:51 435.225 FM
Oscar 16 03 Sep 03:52:39 03:57:08 31° 283° (WNW) 04:01:39 437.025 USB, Beacon 2401.1428
ITAMSAT 1 03 Sep 03:56:11 04:01:22 86° 283° (WNW) 04:06:36 435.822 SSB
Uribyol 2 03 Sep 04:05:22 04:10:30 61° 283° (WNW) 04:15:39 436.500 FM
TMSAT-1 03 Sep 04:22:34 04:27:38 47° 103° (ESE) 04:32:43 436.925 FM
JAS-1B 03 Sep 04:26:32 04:32:03 52° 283° (WNW) 04:37:37 435.800 - 435.900 CW/SSB
AO-27 03 Sep 04:26:34 04:31:16 36° 283° (WNW) 04:36:01 436.795 MHz FM
Sapphire 03 Sep 04:29:09 04:34:32 72° 251° (WSW) 04:39:55 437.095 MHz 1200 baud AX-25 AFSK
UOSAT-12 03 Sep 04:47:53 04:52:18 63° 292° (WNW) 04:56:47 437.025 FM, 437.400 FM
PCSat 03 Sep 04:58:58 05:03:36 30° 251° (WSW) 05:08:15 145.825 MHz
AO-Echo 03 Sep 05:00:19 05:01:44 11° 282° (WNW) 05:03:10 ?
AO-7 03 Sep 05:02:40 05:09:28 29° 107° (ESE) 05:16:16 29.400 - 29.500 MHz
Gurwin Techsat 1B 03 Sep 05:13:30 05:17:59 28° 283° (WNW) 05:22:29 435.225 FM
PANSAT 03 Sep 05:40:13 05:42:28 15° 152° (SSE) 05:44:43 not established
Uosat F 03 Sep 05:50:29 05:55:26 67° 103° (ESE) 06:00:26 435.120 FM
TMSAT-1 03 Sep 06:06:32 06:07:16 10° 283° (WNW) 06:08:00 436.925 FM
OPAL 03 Sep 06:07:36 06:12:36 79° 76° (ENE) 06:17:38 ?
RS-15 03 Sep 06:09:39 06:19:44 34° 112° (ESE) 06:29:21 29.354 - 29.394 USB, Beacon 29.352 USB
JAS-2 03 Sep 06:27:43 06:30:59 15° 107° (ESE) 06:34:25 435.800 - 435.900 CW/SSB, 435.910 FM
AO-7 03 Sep 06:54:28 07:01:53 38° 286° (WNW) 07:09:22 29.400 - 29.500 MHz
ISS 03 Sep 07:02:16 07:03:32 12° 126° (SE) 07:04:47 145.800 FM
PANSAT 03 Sep 07:18:47 07:22:39 82° 330° (NNW) 07:26:31 not established
Hamsat 03 Sep 07:57:07 08:01:09 42° 281° (WNW) 08:05:10 145.90 MHz
STRAND 1 03 Sep 07:57:23 08:02:02 35° 77° (ENE) 08:06:39 ?
SO-67 03 Sep 08:04:05 08:05:58 14° 101° (E) 08:07:51 435.3500 MHz FM
JAS-2 03 Sep 08:09:48 08:15:28 48° 281° (WNW) 08:21:55 435.800 - 435.900 CW/SSB, 435.910 FM
